Location: Moena
(46.3667°N, 11.6500°E)
Time: 14:07:31
(UTC+00:00)

ERS-2 - Pass Details

Date: 03 March 2021
Orbit: 492 x 496 km, 98.6° (Epoch: 19 April)

Event Time Altitude Azimuth Distance (km) Brightness Sun altitude
Rises 18:21:35 0° 11° (N) 2,595 5.7 -14.4°
Reaches altitude 10° 18:23:41 10° 8° (N) 1,708 4.8 -14.8°
Maximum altitude 18:27:19 64° 287° (WNW) 556 2.6 -15.4°
Drops below altitude 10° 18:30:55 10° 206° (SSW) 1,695 5.0 -16.0°
Sets 18:32:59 0° 203° (SSW) 2,573 5.9 -16.4°
